TimeCST,TemperatureF,Dew PointF,Humidity,Sea Level PressureIn,VisibilityMPH,Wind Direction,Wind SpeedMPH,Gust SpeedMPH,PrecipitationIn,Events,Conditions,WindDirDegrees,DateUTC
12:53 AM,42.1,33.1,70,30.26,10.0,NNW,8.1,-,N/A,,Clear,330,2009-01-11 06:53:00
1:53 AM,41.0,30.9,67,30.26,10.0,NNW,11.5,-,N/A,,Clear,340,2009-01-11 07:53:00
2:53 AM,41.0,30.0,65,30.27,10.0,North,9.2,-,N/A,,Clear,350,2009-01-11 08:53:00
3:53 AM,39.9,28.9,65,30.27,10.0,North,9.2,-,N/A,,Clear,350,2009-01-11 09:53:00
4:53 AM,39.9,28.0,63,30.26,10.0,North,10.4,-,N/A,,Clear,350,2009-01-11 10:53:00
5:53 AM,39.0,28.0,65,30.28,10.0,North,16.1,-,N/A,,Clear,350,2009-01-11 11:53:00
6:53 AM,37.9,28.0,68,30.30,10.0,North,8.1,-,N/A,,Clear,350,2009-01-11 12:53:00
7:53 AM,37.9,28.0,68,30.31,10.0,North,5.8,-,N/A,,Clear,10,2009-01-11 13:53:00
8:53 AM,37.9,28.0,68,30.35,10.0,North,10.4,-,N/A,,Clear,350,2009-01-11 14:53:00
9:53 AM,39.0,28.9,67,30.36,10.0,North,9.2,-,N/A,,Clear,350,2009-01-11 15:53:00
10:53 AM,41.0,28.0,60,30.35,10.0,NNW,10.4,-,N/A,,Clear,340,2009-01-11 16:53:00
11:53 AM,41.0,28.9,62,30.33,10.0,NW,10.4,-,N/A,,Clear,310,2009-01-11 17:53:00
12:53 PM,44.1,28.9,55,30.30,10.0,NW,9.2,-,N/A,,Clear,320,2009-01-11 18:53:00
1:53 PM,46.9,28.9,50,30.28,10.0,NW,8.1,-,N/A,,Clear,310,2009-01-11 19:53:00
2:53 PM,50.0,30.0,46,30.27,10.0,NW,5.8,-,N/A,,Clear,310,2009-01-11 20:53:00
3:53 PM,52.0,28.9,41,30.27,10.0,North,5.8,-,N/A,,Clear,360,2009-01-11 21:53:00
4:53 PM,50.0,32.0,50,30.27,10.0,Calm,Calm,-,N/A,,Clear,0,2009-01-11 22:53:00
5:53 PM,45.0,33.1,63,30.26,10.0,Calm,Calm,-,N/A,,Clear,0,2009-01-11 23:53:00
6:53 PM,42.1,33.1,70,30.26,10.0,Calm,Calm,-,N/A,,Clear,0,2009-01-12 00:53:00
7:53 PM,39.9,33.1,77,30.27,10.0,Calm,Calm,-,N/A,,Clear,0,2009-01-12 01:53:00
8:53 PM,37.9,32.0,79,30.28,10.0,Calm,Calm,-,N/A,,Clear,0,2009-01-12 02:53:00
9:53 PM,35.1,33.1,92,30.29,10.0,Calm,Calm,-,N/A,,Clear,0,2009-01-12 03:53:00
10:53 PM,36.0,33.1,89,30.29,9.0,Calm,Calm,-,N/A,,Clear,0,2009-01-12 04:53:00
11:53 PM,34.0,32.0,92,30.28,9.0,Calm,Calm,-,N/A,,Clear,0,2009-01-12 05:53:00